| time (UTC) | temp C | wind direction | speed KPH | gust KPH | rain 1hr cm | rain 24hr cm | rain mn cm | humidity % | barometer mb |
| 20260506163205 | 20 | 267 | 9.7 | 22.5 | 0.00 | 0.69 | 0.03 | 43 | 1009.0 |
| 20260506160705 | 20 | 260 | 9.7 | 19.3 | 0.00 | 0.69 | 0.03 | 46 | 1009.0 |
| 20260506160205 | 20 | 214 | 1.6 | 25.7 | 0.00 | 0.69 | 0.03 | 46 | 1008.9 |
| 20260506153704 | 20 | 253 | 6.4 | 16.1 | 0.00 | 0.69 | 0.03 | 47 | 1008.8 |
| 20260506130704 | 20 | 306 | 14.5 | 20.9 | 0.00 | 0.69 | 0.03 | 49 | 1010.1 |
| 20260506123705 | 18 | 302 | 3.2 | 24.1 | 0.00 | 0.69 | 0.03 | 51 | 1010.3 |
| 20260506123205 | 19 | 260 | 9.7 | 22.5 | 0.00 | 0.69 | 0.03 | 50 | 1010.3 |
| 20260506120704 | 18 | 276 | 8.0 | 20.9 | 0.00 | 0.69 | 0.03 | 52 | 1010.3 |
| 20260506113204 | 18 | 319 | 0.0 | 25.7 | 0.00 | 0.69 | 0.03 | 54 | 1010.4 |
| 20260506110705 | 17 | 264 | 3.2 | 20.9 | 0.00 | 0.69 | 0.03 | 55 | 1010.9 |
| 20260506100704 | 16 | 276 | 11.3 | 20.9 | 0.00 | 0.69 | 0.03 | 65 | 1011.2 |
| 20260506093704 | 15 | 275 | 11.3 | 20.9 | 0.00 | 0.69 | 0.03 | 68 | 1011.4 |
| 20260506093204 | 15 | 255 | 9.7 | 25.7 | 0.00 | 0.69 | 0.03 | 69 | 1011.5 |
| 20260506083704 | 12 | 229 | 11.3 | 20.9 | 0.00 | 0.69 | 0.03 | 78 | 1011.5 |
| 20260506080704 | 11 | 209 | 6.4 | 16.1 | 0.00 | 0.69 | 0.03 | 83 | 1011.5 |
| 20260506073204 | 10 | 240 | 4.8 | 19.3 | 0.00 | 0.69 | 0.03 | 85 | 1011.5 |
| 20260506070703 | 10 | 256 | 4.8 | 14.5 | 0.00 | 0.69 | 0.03 | 84 | 1011.6 |
| 20260506070204 | 10 | 251 | 0.0 | 16.1 | 0.00 | 0.69 | 0.03 | 84 | 1011.5 |
| 20260506060704 | 8 | 241 | 0.0 | 0.0 | 0.00 | 0.69 | 0.03 | 84 | 1011.4 |
| 20260506060203 | 8 | 305 | 0.0 | 0.0 | 0.00 | 0.69 | 0.03 | 84 | 1011.3 |
| 20260506050703 | 6 | 86 | 0.0 | 0.0 | 0.00 | 0.69 | 0.03 | 85 | 1011.0 |
| 20260506050204 | 5 | 86 | 0.0 | 0.0 | 0.00 | 0.69 | 0.03 | 85 | 1010.8 |
| 20260506043204 | 7 | 236 | 0.0 | 14.5 | 0.00 | 0.71 | 0.03 | 85 | 1010.1 |
| 20260506040703 | 7 | 110 | 0.0 | 0.0 | 0.00 | 0.71 | 0.03 | 85 | 1010.0 |
| 20260506033703 | 7 | 19 | 0.0 | 0.0 | 0.00 | 0.71 | 0.03 | 84 | 1009.9 |
| 20260506033203 | 7 | 19 | 0.0 | 0.0 | 0.00 | 0.71 | 0.03 | 85 | 1009.9 |
| 20260506030704 | 7 | 279 | 0.0 | 0.0 | 0.00 | 0.71 | 0.03 | 85 | 1009.8 |
| 20260506023204 | 7 | 269 | 0.0 | 0.0 | 0.00 | 0.71 | 0.03 | 85 | 1009.7 |
| 20260506020203 | 7 | 95 | 0.0 | 0.0 | 0.00 | 0.71 | 0.03 | 84 | 1009.6 |
| 20260506013704 | 6 | 346 | 0.0 | 0.0 | 0.00 | 0.71 | 0.03 | 85 | 1009.7 |
| 20260506013203 | 6 | 346 | 0.0 | 0.0 | 0.00 | 0.71 | 0.03 | 85 | 1009.7 |
| 20260506010203 | 7 | 345 | 0.0 | 0.0 | 0.00 | 0.71 | 0.03 | 85 | 1009.7 |
| 20260506003203 | 7 | 346 | 0.0 | 0.0 | 0.03 | 0.71 | 0.03 | 84 | 1010.0 |
| 20260505233702 | 8 | 345 | 0.0 | 0.0 | 0.00 | 0.69 | 0.00 | 84 | 1010.0 |
| 20260505233203 | 8 | 350 | 0.0 | 0.0 | 0.00 | 0.69 | 0.00 | 86 | 1010.0 |
| 20260505223203 | 9 | 350 | 0.0 | 0.0 | 0.00 | 0.69 | 0.00 | 85 | 1010.1 |
| 20260505220704 | 9 | 301 | 0.0 | 0.0 | 0.00 | 0.69 | 0.00 | 85 | 1010.5 |
| 20260505220202 | 9 | 301 | 0.0 | 0.0 | 0.00 | 0.69 | 0.00 | 85 | 1010.6 |
| 20260505213702 | 10 | 266 | 0.0 | 0.0 | 0.00 | 0.69 | 0.69 | 85 | 1010.5 |
| 20260505213203 | 10 | 266 | 0.0 | 0.0 | 0.00 | 0.69 | 0.69 | 85 | 1010.5 |
| 20260505210203 | 11 | 266 | 0.0 | 0.0 | 0.15 | 0.69 | 0.69 | 85 | 1010.4 |
| 20260505203702 | 11 | 265 | 0.0 | 0.0 | 0.15 | 0.69 | 0.69 | 85 | 1010.1 |
| 20260505203203 | 11 | 265 | 0.0 | 14.5 | 0.15 | 0.69 | 0.69 | 85 | 1010.0 |
| 20260505200702 | 11 | 260 | 0.0 | 0.0 | 0.00 | 0.53 | 0.53 | 85 | 1009.9 |
| 20260505190202 | 11 | 27 | 0.0 | 0.0 | 0.30 | 0.79 | 0.53 | 84 | 1008.9 |
| 20260505173203 | 15 | 307 | 9.7 | 19.3 | 0.00 | 0.84 | 0.03 | 68 | 1008.5 |
| 20260505170703 | 16 | 241 | 0.0 | 9.7 | 0.00 | 0.84 | 0.03 | 65 | 1008.2 |